| time (UTC) | temp F | wind direction | speed MPH | gust MPH | rain 1hr in | rain 24hr in | rain mn in | humidity % | barometer mb |
| 20260905185706 | 55 | 0 | 0.0 | 0.0 | 0.00 | 0.00 | 0.00 | 62 | 1011.4 |
| 20260905185105 | 56 | 0 | 0.0 | 0.0 | 0.00 | 0.00 | 0.00 | 62 | 1011.7 |
| 20260905184805 | 57 | 0 | 0.0 | 0.0 | 0.00 | 0.00 | 0.00 | 61 | 1011.7 |
| 20260905184505 | 57 | 0 | 0.0 | 0.0 | 0.00 | 0.00 | 0.00 | 60 | 1011.4 |
| 20260905184206 | 57 | 0 | 0.0 | 0.0 | 0.00 | 0.00 | 0.00 | 59 | 1011.4 |
| 20260905183906 | 58 | 0 | 0.0 | 0.0 | 0.00 | 0.00 | 0.00 | 59 | 1011.4 |
| 20260905183307 | 59 | 0 | 1.0 | 1.0 | 0.00 | 0.00 | 0.00 | 58 | 1011.4 |
| 20260905183006 | 59 | 0 | 1.0 | 1.0 | 0.00 | 0.00 | 0.00 | 57 | 1011.2 |
| 20260905182706 | 60 | 0 | 0.0 | 0.0 | 0.00 | 0.00 | 0.00 | 57 | 1011.2 |
| 20260905182406 | 61 | 0 | 1.0 | 1.0 | 0.00 | 0.00 | 0.00 | 57 | 1011.2 |
| 20260905182106 | 61 | 337 | 2.0 | 2.0 | 0.00 | 0.00 | 0.00 | 56 | 1011.2 |
| 20260905181806 | 61 | 315 | 1.0 | 1.0 | 0.00 | 0.00 | 0.00 | 55 | 1011.2 |
| 20260905181206 | 61 | 315 | 2.0 | 2.0 | 0.00 | 0.00 | 0.00 | 56 | 1011.2 |
| 20260905180906 | 62 | 315 | 1.0 | 2.0 | 0.00 | 0.00 | 0.00 | 55 | 1010.9 |
| 20260905180605 | 62 | 315 | 3.0 | 3.0 | 0.00 | 0.00 | 0.00 | 54 | 1010.9 |
| 20260905180306 | 62 | 270 | 4.0 | 4.0 | 0.00 | 0.00 | 0.00 | 54 | 1010.9 |
| 20260905180005 | 63 | 270 | 5.0 | 5.0 | 0.00 | 0.00 | 0.00 | 54 | 1010.9 |
| 20260905175706 | 63 | 270 | 4.0 | 4.0 | 0.00 | 0.00 | 0.00 | 54 | 1010.9 |
| 20260905175408 | 63 | 315 | 3.0 | 3.0 | 0.00 | 0.00 | 0.00 | 54 | 1010.7 |
| 20260905175106 | 62 | 292 | 4.0 | 4.0 | 0.00 | 0.00 | 0.00 | 55 | 1010.9 |
| 20260905174806 | 63 | 247 | 0.0 | 0.0 | 0.00 | 0.00 | 0.00 | 55 | 1010.7 |
| 20260905174505 | 63 | 337 | 1.0 | 1.0 | 0.00 | 0.00 | 0.00 | 54 | 1010.7 |
| 20260905174206 | 64 | 292 | 1.0 | 1.0 | 0.00 | 0.00 | 0.00 | 54 | 1010.7 |
| 20260905173906 | 64 | 292 | 1.0 | 1.0 | 0.00 | 0.00 | 0.00 | 54 | 1010.7 |
| 20260905173306 | 64 | 315 | 2.0 | 2.0 | 0.00 | 0.00 | 0.00 | 54 | 1010.7 |
| 20260905173006 | 65 | 315 | 2.0 | 2.0 | 0.00 | 0.00 | 0.00 | 53 | 1010.7 |
| 20260905172706 | 65 | 0 | 1.0 | 1.0 | 0.00 | 0.00 | 0.00 | 54 | 1010.7 |
| 20260905172406 | 65 | 337 | 1.0 | 1.0 | 0.00 | 0.00 | 0.00 | 53 | 1010.7 |
| 20260905172106 | 65 | 292 | 2.0 | 2.0 | 0.00 | 0.00 | 0.00 | 52 | 1010.4 |
| 20260905171806 | 66 | 337 | 4.0 | 4.0 | 0.00 | 0.00 | 0.00 | 52 | 1010.4 |
| 20260905171205 | 66 | 315 | 3.0 | 3.0 | 0.00 | 0.00 | 0.00 | 52 | 1010.4 |
| 20260905170906 | 66 | 292 | 3.0 | 3.0 | 0.00 | 0.00 | 0.00 | 52 | 1010.4 |
| 20260905170605 | 67 | 315 | 5.0 | 5.0 | 0.00 | 0.00 | 0.00 | 53 | 1010.4 |
| 20260905170305 | 67 | 292 | 2.0 | 2.0 | 0.00 | 0.00 | 0.00 | 52 | 1010.4 |
| 20260905170006 | 67 | 315 | 3.0 | 3.0 | 0.00 | 0.00 | 0.00 | 52 | 1010.4 |
| 20260905165706 | 67 | 337 | 4.0 | 4.0 | 0.00 | 0.00 | 0.00 | 51 | 1010.2 |
| 20260905165409 | 68 | 292 | 4.0 | 4.0 | 0.00 | 0.00 | 0.00 | 50 | 1010.2 |
| 20260905165106 | 69 | 337 | 6.0 | 6.0 | 0.00 | 0.00 | 0.00 | 51 | 1010.2 |
| 20260905164806 | 68 | 337 | 6.0 | 6.0 | 0.00 | 0.00 | 0.00 | 50 | 1010.2 |
| 20260905164506 | 69 | 270 | 3.0 | 3.0 | 0.00 | 0.00 | 0.00 | 51 | 1010.2 |
| 20260905164206 | 69 | 270 | 5.0 | 5.0 | 0.00 | 0.00 | 0.00 | 51 | 1010.2 |
| 20260905163906 | 69 | 315 | 4.0 | 4.0 | 0.00 | 0.00 | 0.00 | 50 | 1010.2 |
| 20260905163608 | 70 | 315 | 4.0 | 4.0 | 0.00 | 0.00 | 0.00 | 50 | 1010.2 |
| 20260905163306 | 69 | 315 | 5.0 | 5.0 | 0.00 | 0.00 | 0.00 | 50 | 1010.2 |
| 20260905163005 | 69 | 270 | 9.0 | 9.0 | 0.00 | 0.00 | 0.00 | 50 | 1010.2 |
| 20260905162705 | 68 | 247 | 9.0 | 9.0 | 0.00 | 0.00 | 0.00 | 50 | 1009.9 |
| 20260905162406 | 69 | 337 | 6.0 | 6.0 | 0.00 | 0.00 | 0.00 | 50 | 1009.7 |
| 20260905162105 | 68 | 337 | 7.0 | 7.0 | 0.00 | 0.00 | 0.00 | 50 | 1009.7 |
| 20260905161809 | 68 | 337 | 5.0 | 5.0 | 0.00 | 0.00 | 0.00 | 50 | 1009.7 |
| 20260905161505 | 68 | 292 | 4.0 | 4.0 | 0.00 | 0.00 | 0.00 | 51 | 1009.7 |
| 20260905161205 | 67 | 270 | 6.0 | 6.0 | 0.00 | 0.00 | 0.00 | 50 | 1009.7 |
| 20260905160906 | 68 | 292 | 5.0 | 5.0 | 0.00 | 0.00 | 0.00 | 51 | 1009.7 |
| 20260905160606 | 67 | 315 | 8.0 | 8.0 | 0.00 | 0.00 | 0.00 | 50 | 1009.7 |
| 20260905160306 | 67 | 270 | 10.0 | 10.0 | 0.00 | 0.00 | 0.00 | 50 | 1009.7 |
| 20260905155706 | 67 | 292 | 15.0 | 15.0 | 0.00 | 0.00 | 0.00 | 50 | 1009.4 |
| 20260905155406 | 67 | 270 | 9.0 | 9.0 | 0.00 | 0.00 | 0.00 | 49 | 1009.4 |
| 20260905155107 | 68 | 270 | 5.0 | 5.0 | 0.00 | 0.00 | 0.00 | 48 | 1009.4 |
| 20260905154805 | 69 | 315 | 6.0 | 6.0 | 0.00 | 0.00 | 0.00 | 48 | 1009.4 |
| 20260905154506 | 70 | 0 | 6.0 | 6.0 | 0.00 | 0.00 | 0.00 | 48 | 1009.2 |
| 20260905154205 | 70 | 270 | 12.0 | 12.0 | 0.00 | 0.00 | 0.00 | 48 | 1009.7 |
| 20260905153605 | 69 | 315 | 5.0 | 5.0 | 0.00 | 0.00 | 0.00 | 48 | 1009.4 |
| 20260905153306 | 69 | 315 | 7.0 | 7.0 | 0.00 | 0.00 | 0.00 | 47 | 1009.2 |
| 20260905153005 | 71 | 337 | 8.0 | 8.0 | 0.00 | 0.00 | 0.00 | 47 | 1009.2 |
| 20260905152707 | 71 | 270 | 10.0 | 10.0 | 0.00 | 0.00 | 0.00 | 48 | 1009.2 |
| 20260905152407 | 71 | 247 | 3.0 | 3.0 | 0.00 | 0.00 | 0.00 | 47 | 1009.2 |
| 20260905152106 | 71 | 270 | 4.0 | 4.0 | 0.00 | 0.00 | 0.00 | 46 | 1009.2 |
| 20260905151506 | 72 | 247 | 8.0 | 8.0 | 0.00 | 0.00 | 0.00 | 47 | 1009.2 |
| 20260905151206 | 71 | 292 | 4.0 | 4.0 | 0.00 | 0.00 | 0.00 | 47 | 1009.2 |
| 20260905150906 | 71 | 337 | 7.0 | 7.0 | 0.00 | 0.00 | 0.00 | 46 | 1009.2 |
| 20260905150307 | 70 | 270 | 11.0 | 12.0 | 0.00 | 0.00 | 0.00 | 46 | 1009.2 |
| 20260905150006 | 71 | 270 | 8.0 | 8.0 | 0.00 | 0.00 | 0.00 | 47 | 1009.2 |
| 20260905145706 | 70 | 315 | 6.0 | 6.0 | 0.00 | 0.00 | 0.00 | 47 | 1009.2 |
| 20260905145406 | 70 | 337 | 11.0 | 11.0 | 0.00 | 0.00 | 0.00 | 46 | 1009.2 |
| 20260905145106 | 71 | 0 | 6.0 | 6.0 | 0.00 | 0.00 | 0.00 | 49 | 1008.9 |
| 20260905144806 | 70 | 337 | 3.0 | 4.0 | 0.00 | 0.00 | 0.00 | 48 | 1008.9 |
| 20260905144205 | 70 | 337 | 4.0 | 4.0 | 0.00 | 0.00 | 0.00 | 47 | 1008.9 |
| 20260905143905 | 71 | 0 | 11.0 | 11.0 | 0.00 | 0.00 | 0.00 | 45 | 1009.2 |
| 20260905143605 | 71 | 247 | 8.0 | 8.0 | 0.00 | 0.00 | 0.00 | 46 | 1008.9 |
| 20260905143306 | 72 | 247 | 4.0 | 4.0 | 0.00 | 0.00 | 0.00 | 46 | 1008.9 |
| 20260905143005 | 71 | 270 | 3.0 | 3.0 | 0.00 | 0.00 | 0.00 | 46 | 1008.9 |
| 20260905142406 | 71 | 225 | 9.0 | 9.0 | 0.00 | 0.00 | 0.00 | 45 | 1008.9 |
| 20260905142105 | 72 | 337 | 8.0 | 8.0 | 0.00 | 0.00 | 0.00 | 46 | 1008.9 |
| 20260905141806 | 72 | 270 | 7.0 | 7.0 | 0.00 | 0.00 | 0.00 | 46 | 1009.2 |
| 20260905141506 | 72 | 247 | 8.0 | 8.0 | 0.00 | 0.00 | 0.00 | 47 | 1008.9 |
| 20260905141206 | 72 | 315 | 5.0 | 5.0 | 0.00 | 0.00 | 0.00 | 47 | 1008.9 |
| 20260905140606 | 70 | 292 | 11.0 | 12.0 | 0.00 | 0.00 | 0.00 | 47 | 1008.7 |
| 20260905140306 | 70 | 270 | 10.0 | 10.0 | 0.00 | 0.00 | 0.00 | 46 | 1008.9 |
| 20260905140006 | 71 | 315 | 5.0 | 5.0 | 0.00 | 0.00 | 0.00 | 45 | 1008.7 |
| 20260905135706 | 70 | 270 | 6.0 | 6.0 | 0.00 | 0.00 | 0.00 | 45 | 1008.7 |
| 20260905135408 | 70 | 315 | 9.0 | 9.0 | 0.00 | 0.00 | 0.00 | 46 | 1008.7 |
| 20260905135106 | 70 | 337 | 4.0 | 4.0 | 0.00 | 0.00 | 0.00 | 45 | 1008.7 |
| 20260905134806 | 71 | 247 | 5.0 | 5.0 | 0.00 | 0.00 | 0.00 | 44 | 1008.7 |
| 20260905134506 | 72 | 315 | 5.0 | 5.0 | 0.00 | 0.00 | 0.00 | 45 | 1008.7 |
| 20260905134206 | 73 | 270 | 6.0 | 6.0 | 0.00 | 0.00 | 0.00 | 46 | 1008.7 |
| 20260905133905 | 73 | 247 | 15.0 | 15.0 | 0.00 | 0.00 | 0.00 | 44 | 1008.7 |
| 20260905133605 | 72 | 247 | 10.0 | 10.0 | 0.00 | 0.00 | 0.00 | 46 | 1008.7 |
| 20260905133308 | 71 | 315 | 6.0 | 6.0 | 0.00 | 0.00 | 0.00 | 44 | 1008.7 |
| 20260905133006 | 72 | 270 | 7.0 | 7.0 | 0.00 | 0.00 | 0.00 | 44 | 1008.7 |
| 20260905132706 | 71 | 270 | 12.0 | 12.0 | 0.00 | 0.00 | 0.00 | 45 | 1008.7 |
| 20260905132406 | 71 | 247 | 13.0 | 13.0 | 0.00 | 0.00 | 0.00 | 47 | 1008.7 |
| 20260905132106 | 72 | 315 | 5.0 | 5.0 | 0.00 | 0.00 | 0.00 | 47 | 1008.7 |
| 20260905131806 | 72 | 225 | 9.0 | 9.0 | 0.00 | 0.00 | 0.00 | 48 | 1008.5 |
| 20260905131506 | 72 | 270 | 3.0 | 3.0 | 0.00 | 0.00 | 0.00 | 46 | 1008.5 |
| 20260905131208 | 71 | 315 | 12.0 | 12.0 | 0.00 | 0.00 | 0.00 | 45 | 1008.7 |
| 20260905130905 | 71 | 225 | 9.0 | 9.0 | 0.00 | 0.00 | 0.00 | 45 | 1008.7 |
| 20260905130606 | 71 | 225 | 8.0 | 8.0 | 0.00 | 0.00 | 0.00 | 47 | 1008.7 |
| 20260905130306 | 71 | 270 | 10.0 | 10.0 | 0.00 | 0.00 | 0.00 | 46 | 1008.7 |
| 20260905130006 | 72 | 337 | 5.0 | 5.0 | 0.00 | 0.00 | 0.00 | 47 | 1008.7 |
| 20260905125406 | 71 | 337 | 8.0 | 8.0 | 0.00 | 0.00 | 0.00 | 47 | 1008.5 |
| 20260905125105 | 71 | 270 | 10.0 | 11.0 | 0.00 | 0.00 | 0.00 | 48 | 1008.2 |
| 20260905124805 | 70 | 292 | 4.0 | 4.0 | 0.00 | 0.00 | 0.00 | 49 | 1008.5 |
| 20260905124505 | 70 | 337 | 8.0 | 8.0 | 0.00 | 0.00 | 0.00 | 50 | 1008.5 |
| 20260905124206 | 70 | 225 | 5.0 | 5.0 | 0.00 | 0.00 | 0.00 | 49 | 1008.5 |
| 20260905123906 | 70 | 337 | 6.0 | 6.0 | 0.00 | 0.00 | 0.00 | 51 | 1008.2 |
| 20260905123306 | 69 | 247 | 4.0 | 4.0 | 0.00 | 0.00 | 0.00 | 52 | 1008.2 |
| 20260905123005 | 69 | 337 | 4.0 | 4.0 | 0.00 | 0.00 | 0.00 | 53 | 1008.2 |
| 20260905122705 | 69 | 270 | 6.0 | 6.0 | 0.00 | 0.00 | 0.00 | 53 | 1008.2 |
| 20260905122406 | 68 | 315 | 7.0 | 7.0 | 0.00 | 0.00 | 0.00 | 50 | 1008.5 |
| 20260905122106 | 69 | 270 | 5.0 | 5.0 | 0.00 | 0.00 | 0.00 | 54 | 1008.2 |
| 20260905121808 | 67 | 337 | 5.0 | 5.0 | 0.00 | 0.00 | 0.00 | 51 | 1008.5 |
| 20260905121506 | 67 | 270 | 4.0 | 4.0 | 0.00 | 0.00 | 0.00 | 51 | 1008.2 |
| 20260905121206 | 68 | 337 | 6.0 | 6.0 | 0.00 | 0.00 | 0.00 | 51 | 1008.2 |
| 20260905120906 | 67 | 270 | 12.0 | 12.0 | 0.00 | 0.00 | 0.00 | 50 | 1008.2 |
| 20260905120606 | 68 | 225 | 9.0 | 9.0 | 0.00 | 0.00 | 0.00 | 50 | 1008.2 |
| 20260905120305 | 68 | 337 | 14.0 | 14.0 | 0.00 | 0.00 | 0.00 | 48 | 1008.2 |
| 20260905120005 | 69 | 292 | 9.0 | 9.0 | 0.00 | 0.00 | 0.00 | 49 | 1008.2 |
| 20260905115405 | 68 | 292 | 5.0 | 5.0 | 0.00 | 0.00 | 0.00 | 49 | 1008.2 |
| 20260905115106 | 69 | 315 | 8.0 | 8.0 | 0.00 | 0.00 | 0.00 | 50 | 1008.2 |
| 20260905114806 | 69 | 292 | 3.0 | 4.0 | 0.00 | 0.00 | 0.00 | 50 | 1008.2 |
| 20260905114506 | 70 | 247 | 4.0 | 4.0 | 0.00 | 0.00 | 0.00 | 50 | 1008.2 |
| 20260905114205 | 68 | 270 | 8.0 | 8.0 | 0.00 | 0.00 | 0.00 | 49 | 1008.2 |
| 20260905113906 | 68 | 337 | 10.0 | 10.0 | 0.00 | 0.00 | 0.00 | 49 | 1008.2 |
| 20260905113305 | 69 | 292 | 9.0 | 9.0 | 0.00 | 0.00 | 0.00 | 50 | 1008.2 |
| 20260905113005 | 70 | 337 | 10.0 | 10.0 | 0.00 | 0.00 | 0.00 | 53 | 1008.2 |
| 20260905112705 | 69 | 337 | 6.0 | 6.0 | 0.00 | 0.00 | 0.00 | 52 | 1008.5 |
| 20260905112406 | 69 | 270 | 7.0 | 7.0 | 0.00 | 0.00 | 0.00 | 51 | 1008.5 |
| 20260905112107 | 69 | 337 | 7.0 | 7.0 | 0.00 | 0.00 | 0.00 | 51 | 1008.5 |
| 20260905111805 | 69 | 225 | 4.0 | 4.0 | 0.00 | 0.00 | 0.00 | 54 | 1008.5 |
| 20260905111509 | 68 | 337 | 8.0 | 8.0 | 0.00 | 0.00 | 0.00 | 53 | 1008.2 |
| 20260905111206 | 68 | 225 | 4.0 | 4.0 | 0.00 | 0.00 | 0.00 | 56 | 1008.5 |
| 20260905110905 | 68 | 270 | 14.0 | 14.0 | 0.00 | 0.00 | 0.00 | 56 | 1008.2 |
| 20260905110606 | 67 | 315 | 6.0 | 7.0 | 0.00 | 0.00 | 0.00 | 57 | 1008.5 |
| 20260905110306 | 67 | 270 | 10.0 | 10.0 | 0.00 | 0.00 | 0.00 | 58 | 1008.7 |
| 20260905110006 | 65 | 270 | 8.0 | 8.0 | 0.00 | 0.00 | 0.00 | 57 | 1008.5 |
| 20260905105405 | 66 | 292 | 6.0 | 6.0 | 0.00 | 0.00 | 0.00 | 55 | 1008.5 |
| 20260905105106 | 67 | 270 | 13.0 | 13.0 | 0.00 | 0.00 | 0.00 | 55 | 1008.5 |
| 20260905104806 | 68 | 270 | 8.0 | 8.0 | 0.00 | 0.00 | 0.00 | 56 | 1008.2 |
| 20260905104505 | 69 | 292 | 5.0 | 5.0 | 0.00 | 0.00 | 0.00 | 56 | 1008.2 |
| 20260905104206 | 68 | 292 | 6.0 | 6.0 | 0.00 | 0.00 | 0.00 | 57 | 1008.5 |
| 20260905103907 | 66 | 22 | 4.0 | 4.0 | 0.00 | 0.00 | 0.00 | 56 | 1008.5 |
| 20260905103306 | 67 | 315 | 4.0 | 4.0 | 0.00 | 0.00 | 0.00 | 57 | 1008.2 |
| 20260905103005 | 68 | 292 | 16.0 | 16.0 | 0.00 | 0.00 | 0.00 | 56 | 1008.5 |
| 20260905102705 | 68 | 247 | 7.0 | 7.0 | 0.00 | 0.00 | 0.00 | 59 | 1008.5 |
| 20260905102407 | 68 | 337 | 6.0 | 6.0 | 0.00 | 0.00 | 0.00 | 58 | 1008.2 |
| 20260905102106 | 68 | 225 | 5.0 | 5.0 | 0.00 | 0.00 | 0.00 | 59 | 1008.5 |
| 20260905101809 | 68 | 270 | 9.0 | 9.0 | 0.00 | 0.00 | 0.00 | 61 | 1008.5 |
| 20260905101506 | 68 | 202 | 3.0 | 3.0 | 0.00 | 0.00 | 0.00 | 63 | 1008.7 |
| 20260905101205 | 66 | 315 | 6.0 | 6.0 | 0.00 | 0.00 | 0.00 | 62 | 1008.5 |
| 20260905100906 | 66 | 225 | 6.0 | 6.0 | 0.00 | 0.00 | 0.00 | 62 | 1008.5 |
| 20260905100606 | 65 | 247 | 7.0 | 7.0 | 0.00 | 0.00 | 0.00 | 62 | 1008.5 |
| 20260905100306 | 65 | 292 | 8.0 | 8.0 | 0.00 | 0.00 | 0.00 | 63 | 1008.5 |
| 20260905100005 | 64 | 270 | 10.0 | 10.0 | 0.00 | 0.00 | 0.00 | 62 | 1008.5 |
| 20260905095407 | 64 | 337 | 13.0 | 13.0 | 0.00 | 0.00 | 0.00 | 62 | 1008.5 |
| 20260905095106 | 65 | 247 | 4.0 | 4.0 | 0.00 | 0.00 | 0.00 | 61 | 1008.5 |
| 20260905094806 | 65 | 180 | 3.0 | 3.0 | 0.00 | 0.00 | 0.00 | 62 | 1008.5 |
| 20260905094506 | 66 | 292 | 9.0 | 9.0 | 0.00 | 0.00 | 0.00 | 63 | 1008.2 |
| 20260905094206 | 67 | 270 | 6.0 | 6.0 | 0.00 | 0.00 | 0.00 | 65 | 1008.2 |
| 20260905093906 | 65 | 270 | 5.0 | 5.0 | 0.00 | 0.00 | 0.00 | 62 | 1008.2 |
| 20260905093305 | 66 | 337 | 5.0 | 5.0 | 0.00 | 0.00 | 0.00 | 65 | 1008.2 |
| 20260905093006 | 66 | 315 | 9.0 | 9.0 | 0.00 | 0.00 | 0.00 | 65 | 1008.2 |
| 20260905092706 | 65 | 202 | 6.0 | 6.0 | 0.00 | 0.00 | 0.00 | 66 | 1008.2 |
| 20260905092406 | 65 | 337 | 8.0 | 8.0 | 0.00 | 0.00 | 0.00 | 66 | 1008.5 |
| 20260905092106 | 65 | 270 | 10.0 | 10.0 | 0.00 | 0.00 | 0.00 | 67 | 1008.2 |
| 20260905091507 | 65 | 247 | 3.0 | 3.0 | 0.00 | 0.00 | 0.00 | 67 | 1008.2 |
| 20260905091206 | 64 | 247 | 10.0 | 10.0 | 0.00 | 0.00 | 0.00 | 69 | 1008.2 |
| 20260905090906 | 64 | 270 | 8.0 | 8.0 | 0.00 | 0.00 | 0.00 | 68 | 1008.2 |
| 20260905090606 | 63 | 270 | 10.0 | 10.0 | 0.00 | 0.00 | 0.00 | 68 | 1008.2 |
| 20260905090306 | 63 | 270 | 4.0 | 4.0 | 0.00 | 0.00 | 0.00 | 68 | 1008.2 |
| 20260905090006 | 63 | 225 | 11.0 | 11.0 | 0.00 | 0.00 | 0.00 | 67 | 1008.2 |
| 20260905085405 | 63 | 315 | 6.0 | 6.0 | 0.00 | 0.00 | 0.00 | 68 | 1008.2 |
| 20260905085106 | 63 | 270 | 7.0 | 7.0 | 0.00 | 0.00 | 0.00 | 69 | 1008.0 |
| 20260905084805 | 64 | 337 | 9.0 | 9.0 | 0.00 | 0.00 | 0.00 | 69 | 1008.2 |
| 20260905084506 | 63 | 337 | 9.0 | 9.0 | 0.00 | 0.00 | 0.00 | 68 | 1008.0 |
| 20260905084206 | 63 | 270 | 6.0 | 6.0 | 0.00 | 0.00 | 0.00 | 71 | 1008.0 |
| 20260905083605 | 63 | 270 | 5.0 | 5.0 | 0.00 | 0.00 | 0.00 | 71 | 1008.0 |
| 20260905083005 | 62 | 270 | 7.0 | 7.0 | 0.00 | 0.00 | 0.00 | 72 | 1008.0 |
| 20260905082706 | 62 | 270 | 8.0 | 8.0 | 0.00 | 0.00 | 0.00 | 72 | 1008.0 |
| 20260905082406 | 62 | 225 | 11.0 | 11.0 | 0.00 | 0.00 | 0.00 | 73 | 1008.0 |
| 20260905082108 | 62 | 247 | 9.0 | 9.0 | 0.00 | 0.00 | 0.00 | 73 | 1008.0 |
| 20260905081805 | 62 | 225 | 12.0 | 12.0 | 0.00 | 0.00 | 0.00 | 73 | 1007.7 |
| 20260905081506 | 62 | 247 | 5.0 | 5.0 | 0.00 | 0.00 | 0.00 | 73 | 1007.7 |
| 20260905081206 | 62 | 225 | 6.0 | 6.0 | 0.00 | 0.00 | 0.00 | 74 | 1008.0 |
| 20260905080905 | 62 | 337 | 4.0 | 4.0 | 0.00 | 0.00 | 0.00 | 74 | 1007.7 |
| 20260905080605 | 62 | 225 | 8.0 | 8.0 | 0.00 | 0.00 | 0.00 | 75 | 1008.0 |
| 20260905080305 | 62 | 202 | 5.0 | 5.0 | 0.00 | 0.00 | 0.00 | 76 | 1007.7 |
| 20260905080009 | 61 | 225 | 9.0 | 9.0 | 0.00 | 0.00 | 0.00 | 76 | 1007.7 |
| 20260905075705 | 61 | 337 | 2.0 | 2.0 | 0.00 | 0.00 | 0.00 | 75 | 1007.7 |
| 20260905075405 | 61 | 337 | 8.0 | 8.0 | 0.00 | 0.00 | 0.00 | 76 | 1007.7 |
| 20260905075105 | 62 | 270 | 6.0 | 6.0 | 0.00 | 0.00 | 0.00 | 77 | 1008.0 |
| 20260905074806 | 61 | 225 | 7.0 | 7.0 | 0.00 | 0.00 | 0.00 | 77 | 1007.7 |
| 20260905074506 | 61 | 337 | 6.0 | 6.0 | 0.00 | 0.00 | 0.00 | 78 | 1007.7 |
| 20260905074206 | 60 | 270 | 11.0 | 11.0 | 0.00 | 0.00 | 0.00 | 79 | 1007.7 |
| 20260905073606 | 60 | 225 | 6.0 | 6.0 | 0.00 | 0.00 | 0.00 | 80 | 1007.7 |
| 20260905073306 | 60 | 337 | 2.0 | 2.0 | 0.00 | 0.00 | 0.00 | 79 | 1007.7 |
| 20260905073006 | 60 | 225 | 3.0 | 3.0 | 0.00 | 0.00 | 0.00 | 79 | 1007.7 |
| 20260905072705 | 60 | 337 | 4.0 | 4.0 | 0.00 | 0.00 | 0.00 | 79 | 1007.5 |
| 20260905072405 | 59 | 270 | 2.0 | 2.0 | 0.00 | 0.00 | 0.00 | 79 | 1007.7 |
| 20260905071806 | 59 | 270 | 3.0 | 3.0 | 0.00 | 0.00 | 0.00 | 79 | 1007.7 |
| 20260905071506 | 59 | 270 | 3.0 | 3.0 | 0.00 | 0.00 | 0.00 | 79 | 1007.7 |
| 20260905071206 | 59 | 180 | 6.0 | 6.0 | 0.00 | 0.00 | 0.00 | 80 | 1007.7 |
| 20260905070906 | 59 | 337 | 5.0 | 5.0 | 0.00 | 0.00 | 0.00 | 81 | 1007.5 |
| 20260905070606 | 59 | 225 | 6.0 | 6.0 | 0.00 | 0.00 | 0.00 | 82 | 1007.5 |
| 20260905070306 | 59 | 180 | 4.0 | 4.0 | 0.00 | 0.00 | 0.00 | 82 | 1007.5 |
| 20260905070009 | 59 | 225 | 3.0 | 3.0 | 0.00 | 0.00 | 0.00 | 82 | 1007.5 |
| 20260905065706 | 59 | 292 | 0.0 | 0.0 | 0.00 | 0.00 | 0.00 | 82 | 1007.5 |
| 20260905065406 | 58 | 90 | 1.0 | 1.0 | 0.00 | 0.00 | 0.00 | 81 | 1007.5 |
| 20260905065106 | 58 | 67 | 1.0 | 1.0 | 0.00 | 0.00 | 0.00 | 81 | 1007.2 |
| 20260905064806 | 58 | 67 | 0.0 | 0.0 | 0.00 | 0.00 | 0.00 | 82 | 1007.2 |
| 20260905064506 | 57 | 67 | 1.0 | 1.0 | 0.00 | 0.00 | 0.00 | 81 | 1007.2 |
| 20260905064206 | 57 | 337 | 0.0 | 0.0 | 0.00 | 0.00 | 0.00 | 81 | 1007.2 |
| 20260905063606 | 57 | 247 | 0.0 | 0.0 | 0.00 | 0.00 | 0.00 | 80 | 1007.2 |
| 20260905063305 | 57 | 247 | 0.0 | 0.0 | 0.00 | 0.00 | 0.00 | 80 | 1007.2 |
| 20260905063006 | 56 | 225 | 1.0 | 1.0 | 0.00 | 0.00 | 0.00 | 81 | 1007.2 |
| 20260905062705 | 56 | 180 | 0.0 | 0.0 | 0.00 | 0.00 | 0.00 | 80 | 1007.2 |
| 20260905062406 | 56 | 90 | 0.0 | 0.0 | 0.00 | 0.00 | 0.00 | 80 | 1007.2 |
| 20260905062108 | 56 | 90 | 0.0 | 0.0 | 0.00 | 0.00 | 0.00 | 80 | 1007.0 |
| 20260905061805 | 56 | 67 | 0.0 | 0.0 | 0.00 | 0.00 | 0.00 | 81 | 1007.2 |
| 20260905061505 | 56 | 67 | 1.0 | 1.0 | 0.00 | 0.00 | 0.00 | 80 | 1007.2 |
| 20260905061206 | 55 | 90 | 0.0 | 0.0 | 0.00 | 0.00 | 0.00 | 80 | 1007.0 |
| 20260905060905 | 55 | 67 | 0.0 | 0.0 | 0.00 | 0.00 | 0.00 | 81 | 1007.2 |
| 20260905060606 | 55 | 337 | 0.0 | 0.0 | 0.00 | 0.00 | 0.00 | 80 | 1007.2 |
| 20260905060305 | 55 | 67 | 0.0 | 0.0 | 0.00 | 0.00 | 0.00 | 80 | 1007.2 |
| 20260905055706 | 54 | 90 | 0.0 | 0.0 | 0.00 | 0.00 | 0.00 | 80 | 1007.0 |
| 20260905055406 | 54 | 90 | 0.0 | 0.0 | 0.00 | 0.00 | 0.00 | 80 | 1006.7 |
| 20260905055105 | 54 | 90 | 0.0 | 0.0 | 0.00 | 0.00 | 0.00 | 80 | 1006.7 |
| 20260905054805 | 55 | 90 | 0.0 | 0.0 | 0.00 | 0.00 | 0.00 | 80 | 1006.7 |
| 20260905054506 | 55 | 90 | 0.0 | 0.0 | 0.00 | 0.00 | 0.00 | 79 | 1006.7 |
| 20260905053905 | 54 | 90 | 1.0 | 1.0 | 0.00 | 0.00 | 0.00 | 79 | 1006.7 |
| 20260905053605 | 54 | 337 | 0.0 | 0.0 | 0.00 | 0.00 | 0.00 | 79 | 1006.5 |
| 20260905053305 | 54 | 112 | 0.0 | 0.0 | 0.00 | 0.00 | 0.00 | 79 | 1006.7 |
| 20260905053005 | 54 | 112 | 0.0 | 0.0 | 0.00 | 0.00 | 0.00 | 79 | 1006.7 |
| 20260905052706 | 54 | 135 | 0.0 | 0.0 | 0.00 | 0.00 | 0.00 | 79 | 1006.5 |
| 20260905052106 | 54 | 135 | 0.0 | 0.0 | 0.00 | 0.00 | 0.00 | 78 | 1006.5 |
| 20260905051806 | 53 | 135 | 0.0 | 0.0 | 0.00 | 0.00 | 0.00 | 78 | 1006.5 |
| 20260905051206 | 53 | 135 | 0.0 | 0.0 | 0.00 | 0.00 | 0.00 | 77 | 1006.5 |
| 20260905050605 | 53 | 45 | 0.0 | 0.0 | 0.00 | 0.00 | 0.00 | 77 | 1006.5 |
| 20260905050305 | 52 | 45 | 0.0 | 0.0 | 0.00 | 0.00 | 0.00 | 77 | 1006.2 |
| 20260905050006 | 52 | 90 | 0.0 | 0.0 | 0.00 | 0.00 | 0.00 | 77 | 1006.2 |
| 20260905045706 | 52 | 90 | 0.0 | 0.0 | 0.00 | 0.00 | 0.00 | 77 | 1006.2 |
| 20260905045407 | 52 | 90 | 0.0 | 0.0 | 0.00 | 0.00 | 0.00 | 76 | 1006.2 |
| 20260905045107 | 52 | 67 | 1.0 | 1.0 | 0.00 | 0.00 | 0.00 | 76 | 1006.2 |
| 20260905044809 | 52 | 45 | 0.0 | 0.0 | 0.00 | 0.00 | 0.00 | 75 | 1006.2 |
| 20260905044506 | 52 | 45 | 0.0 | 0.0 | 0.00 | 0.00 | 0.00 | 76 | 1006.2 |
| 20260905044206 | 52 | 45 | 0.0 | 0.0 | 0.00 | 0.00 | 0.00 | 76 | 1006.2 |
| 20260905043906 | 52 | 45 | 0.0 | 0.0 | 0.00 | 0.00 | 0.00 | 76 | 1006.2 |
| 20260905043606 | 52 | 45 | 0.0 | 0.0 | 0.00 | 0.00 | 0.00 | 75 | 1006.2 |
| 20260905043306 | 52 | 45 | 0.0 | 0.0 | 0.00 | 0.00 | 0.00 | 76 | 1006.0 |
| 20260905043005 | 53 | 45 | 0.0 | 0.0 | 0.00 | 0.00 | 0.00 | 76 | 1006.0 |
| 20260905042406 | 53 | 45 | 0.0 | 0.0 | 0.00 | 0.00 | 0.00 | 75 | 1005.7 |
| 20260905042107 | 53 | 45 | 0.0 | 0.0 | 0.00 | 0.00 | 0.00 | 75 | 1005.7 |
| 20260905041805 | 53 | 45 | 0.0 | 0.0 | 0.00 | 0.00 | 0.00 | 75 | 1005.7 |
| 20260905041506 | 54 | 112 | 0.0 | 0.0 | 0.00 | 0.00 | 0.00 | 76 | 1005.7 |
| 20260905041206 | 54 | 112 | 0.0 | 0.0 | 0.00 | 0.00 | 0.00 | 76 | 1005.5 |
| 20260905040906 | 54 | 112 | 0.0 | 0.0 | 0.00 | 0.00 | 0.00 | 76 | 1005.2 |
| 20260905040306 | 54 | 22 | 0.0 | 0.0 | 0.00 | 0.00 | 0.00 | 76 | 1005.5 |
| 20260905040005 | 54 | 22 | 0.0 | 0.0 | 0.00 | 0.00 | 0.00 | 76 | 1005.5 |
| 20260905035706 | 54 | 22 | 0.0 | 0.0 | 0.00 | 0.00 | 0.00 | 76 | 1005.5 |
| 20260905035406 | 55 | 22 | 0.0 | 0.0 | 0.00 | 0.00 | 0.00 | 76 | 1005.5 |
| 20260905035106 | 55 | 22 | 0.0 | 0.0 | 0.00 | 0.00 | 0.00 | 75 | 1005.5 |
| 20260905034506 | 55 | 22 | 0.0 | 0.0 | 0.00 | 0.00 | 0.00 | 75 | 1005.5 |
| 20260905034206 | 54 | 22 | 0.0 | 0.0 | 0.00 | 0.00 | 0.00 | 75 | 1005.5 |
| 20260905033906 | 55 | 90 | 0.0 | 0.0 | 0.00 | 0.00 | 0.00 | 76 | 1005.5 |
| 20260905033606 | 55 | 337 | 0.0 | 0.0 | 0.00 | 0.00 | 0.00 | 75 | 1005.5 |
| 20260905033305 | 55 | 337 | 0.0 | 0.0 | 0.00 | 0.00 | 0.00 | 75 | 1005.5 |
| 20260905033005 | 55 | 90 | 0.0 | 0.0 | 0.00 | 0.00 | 0.00 | 75 | 1005.5 |
| 20260905032708 | 55 | 337 | 0.0 | 0.0 | 0.00 | 0.00 | 0.00 | 75 | 1005.2 |
| 20260905032405 | 55 | 337 | 0.0 | 0.0 | 0.00 | 0.00 | 0.00 | 75 | 1005.5 |
| 20260905032106 | 55 | 90 | 0.0 | 0.0 | 0.00 | 0.00 | 0.00 | 75 | 1005.5 |
| 20260905031806 | 55 | 90 | 0.0 | 0.0 | 0.00 | 0.00 | 0.00 | 75 | 1005.2 |
| 20260905031505 | 56 | 90 | 0.0 | 0.0 | 0.00 | 0.00 | 0.00 | 75 | 1005.2 |
| 20260905031206 | 56 | 45 | 0.0 | 0.0 | 0.00 | 0.00 | 0.00 | 75 | 1005.2 |
| 20260905030906 | 56 | 45 | 0.0 | 0.0 | 0.00 | 0.00 | 0.00 | 75 | 1005.2 |
| 20260905030306 | 56 | 0 | 0.0 | 0.0 | 0.00 | 0.00 | 0.00 | 75 | 1005.2 |
| 20260905030005 | 56 | 0 | 0.0 | 0.0 | 0.00 | 0.00 | 0.00 | 74 | 1005.2 |
| 20260905025706 | 56 | 0 | 0.0 | 0.0 | 0.00 | 0.00 | 0.00 | 74 | 1005.2 |
| 20260905025406 | 56 | 337 | 0.0 | 0.0 | 0.00 | 0.00 | 0.00 | 73 | 1005.2 |
| 20260905024805 | 56 | 337 | 0.0 | 0.0 | 0.00 | 0.00 | 0.00 | 72 | 1005.2 |
| 20260905024506 | 56 | 337 | 0.0 | 0.0 | 0.00 | 0.00 | 0.00 | 72 | 1005.2 |
| 20260905024205 | 56 | 337 | 0.0 | 0.0 | 0.00 | 0.00 | 0.00 | 72 | 1005.2 |
| 20260905023906 | 56 | 337 | 0.0 | 0.0 | 0.00 | 0.00 | 0.00 | 72 | 1005.2 |
| 20260905023606 | 56 | 337 | 0.0 | 0.0 | 0.00 | 0.00 | 0.00 | 72 | 1005.0 |
| 20260905023306 | 57 | 337 | 0.0 | 0.0 | 0.00 | 0.00 | 0.00 | 72 | 1004.7 |
| 20260905023008 | 56 | 337 | 0.0 | 0.0 | 0.00 | 0.00 | 0.00 | 72 | 1005.0 |
| 20260905022706 | 57 | 337 | 0.0 | 0.0 | 0.00 | 0.00 | 0.00 | 72 | 1005.0 |
| 20260905022406 | 57 | 337 | 0.0 | 0.0 | 0.00 | 0.00 | 0.00 | 72 | 1004.7 |
| 20260905022106 | 57 | 337 | 0.0 | 0.0 | 0.00 | 0.00 | 0.00 | 72 | 1005.0 |
| 20260905021805 | 57 | 337 | 1.0 | 1.0 | 0.00 | 0.00 | 0.00 | 72 | 1005.0 |
| 20260905021506 | 56 | 0 | 2.0 | 2.0 | 0.00 | 0.00 | 0.00 | 72 | 1005.0 |
| 20260905021205 | 56 | 0 | 0.0 | 0.0 | 0.00 | 0.00 | 0.00 | 72 | 1005.0 |
| 20260905020606 | 57 | 0 | 2.0 | 2.0 | 0.00 | 0.00 | 0.00 | 71 | 1004.7 |
| 20260905020306 | 57 | 292 | 1.0 | 1.0 | 0.00 | 0.00 | 0.00 | 70 | 1004.5 |
| 20260905020006 | 57 | 225 | 0.0 | 0.0 | 0.00 | 0.00 | 0.00 | 70 | 1004.5 |
| 20260905015706 | 57 | 135 | 0.0 | 0.0 | 0.00 | 0.00 | 0.00 | 71 | 1004.2 |
| 20260905015406 | 57 | 135 | 0.0 | 0.0 | 0.00 | 0.00 | 0.00 | 71 | 1004.2 |
| 20260905015108 | 57 | 112 | 0.0 | 0.0 | 0.00 | 0.00 | 0.00 | 70 | 1004.5 |
| 20260905014806 | 57 | 225 | 0.0 | 0.0 | 0.00 | 0.00 | 0.00 | 69 | 1004.5 |
| 20260905014506 | 58 | 225 | 0.0 | 0.0 | 0.00 | 0.00 | 0.00 | 69 | 1004.5 |
| 20260905014205 | 58 | 337 | 0.0 | 0.0 | 0.00 | 0.00 | 0.00 | 69 | 1004.5 |
| 20260905013906 | 58 | 337 | 1.0 | 1.0 | 0.00 | 0.00 | 0.00 | 69 | 1004.5 |
| 20260905013306 | 58 | 180 | 2.0 | 2.0 | 0.00 | 0.00 | 0.00 | 69 | 1004.2 |
| 20260905013006 | 58 | 180 | 1.0 | 1.0 | 0.00 | 0.00 | 0.00 | 68 | 1004.5 |
| 20260905012706 | 58 | 337 | 0.0 | 0.0 | 0.00 | 0.00 | 0.00 | 68 | 1004.7 |
| 20260905012406 | 58 | 337 | 1.0 | 1.0 | 0.00 | 0.00 | 0.00 | 69 | 1004.7 |
| 20260905011805 | 58 | 225 | 0.0 | 0.0 | 0.00 | 0.00 | 0.00 | 68 | 1004.7 |
| 20260905011506 | 58 | 225 | 0.0 | 0.0 | 0.00 | 0.00 | 0.00 | 68 | 1004.7 |
| 20260905011205 | 58 | 315 | 0.0 | 0.0 | 0.00 | 0.00 | 0.00 | 67 | 1004.2 |
| 20260905010906 | 58 | 315 | 0.0 | 0.0 | 0.00 | 0.00 | 0.00 | 67 | 1004.2 |
| 20260905010606 | 58 | 315 | 0.0 | 0.0 | 0.00 | 0.00 | 0.00 | 66 | 1004.5 |
| 20260905010305 | 59 | 270 | 0.0 | 0.0 | 0.00 | 0.00 | 0.00 | 66 | 1004.5 |
| 20260905010009 | 59 | 292 | 0.0 | 0.0 | 0.00 | 0.00 | 0.00 | 66 | 1004.5 |
| 20260905005706 | 59 | 270 | 0.0 | 0.0 | 0.00 | 0.00 | 0.00 | 66 | 1004.2 |
| 20260905005405 | 59 | 225 | 1.0 | 1.0 | 0.00 | 0.00 | 0.00 | 66 | 1004.2 |
| 20260905005106 | 59 | 270 | 1.0 | 1.0 | 0.00 | 0.00 | 0.00 | 65 | 1003.8 |
| 20260905004805 | 59 | 337 | 1.0 | 1.0 | 0.00 | 0.00 | 0.00 | 65 | 1004.0 |
| 20260905004506 | 59 | 225 | 3.0 | 3.0 | 0.00 | 0.00 | 0.00 | 65 | 1004.0 |
| 20260905004207 | 59 | 315 | 3.0 | 3.0 | 0.00 | 0.00 | 0.00 | 64 | 1004.2 |
| 20260905003908 | 59 | 225 | 4.0 | 4.0 | 0.00 | 0.00 | 0.00 | 64 | 1004.0 |
| 20260905003606 | 59 | 292 | 1.0 | 1.0 | 0.00 | 0.00 | 0.00 | 64 | 1003.5 |
| 20260905003305 | 60 | 270 | 3.0 | 3.0 | 0.00 | 0.00 | 0.00 | 63 | 1003.8 |
| 20260905003005 | 60 | 270 | 4.0 | 4.0 | 0.00 | 0.00 | 0.00 | 63 | 1003.8 |
| 20260905002705 | 60 | 292 | 3.0 | 3.0 | 0.00 | 0.00 | 0.00 | 62 | 1003.8 |
| 20260905002406 | 60 | 315 | 3.0 | 3.0 | 0.00 | 0.00 | 0.00 | 62 | 1003.8 |
| 20260905001806 | 60 | 337 | 4.0 | 4.0 | 0.00 | 0.00 | 0.00 | 60 | 1003.8 |
| 20260905001506 | 60 | 270 | 2.0 | 2.0 | 0.00 | 0.00 | 0.00 | 60 | 1003.8 |
| 20260905001205 | 60 | 292 | 4.0 | 4.0 | 0.00 | 0.00 | 0.00 | 58 | 1003.5 |
| 20260905000906 | 60 | 270 | 2.0 | 2.0 | 0.00 | 0.00 | 0.00 | 59 | 1003.5 |
| 20260905000606 | 60 | 270 | 2.0 | 2.0 | 0.00 | 0.00 | 0.00 | 59 | 1003.8 |
| 20260905000305 | 61 | 270 | 4.0 | 4.0 | 0.00 | 0.00 | 0.00 | 59 | 1003.8 |
| 20260904235706 | 61 | 270 | 4.0 | 4.0 | 0.00 | 0.00 | 0.00 | 59 | 1003.8 |
| 20260904235406 | 61 | 270 | 4.0 | 4.0 | 0.00 | 0.00 | 0.00 | 58 | 1003.5 |
| 20260904235106 | 61 | 292 | 2.0 | 2.0 | 0.00 | 0.00 | 0.00 | 59 | 1003.3 |
| 20260904234806 | 61 | 337 | 2.0 | 2.0 | 0.00 | 0.00 | 0.00 | 59 | 1003.3 |
| 20260904234505 | 61 | 270 | 2.0 | 2.0 | 0.00 | 0.00 | 0.00 | 59 | 1003.3 |
| 20260904234208 | 61 | 270 | 5.0 | 5.0 | 0.00 | 0.00 | 0.00 | 60 | 1003.0 |
| 20260904233906 | 61 | 315 | 2.0 | 2.0 | 0.00 | 0.00 | 0.00 | 60 | 1003.0 |
| 20260904233606 | 61 | 315 | 3.0 | 3.0 | 0.00 | 0.00 | 0.00 | 60 | 1003.0 |
| 20260904233306 | 61 | 315 | 2.0 | 2.0 | 0.00 | 0.00 | 0.00 | 60 | 1003.0 |
| 20260904233005 | 61 | 337 | 3.0 | 3.0 | 0.00 | 0.00 | 0.00 | 60 | 1003.3 |
| 20260904232706 | 61 | 337 | 7.0 | 7.0 | 0.00 | 0.00 | 0.00 | 60 | 1003.5 |
| 20260904232407 | 61 | 247 | 2.0 | 2.0 | 0.00 | 0.00 | 0.00 | 59 | 1003.5 |
| 20260904231806 | 61 | 270 | 4.0 | 4.0 | 0.00 | 0.00 | 0.00 | 59 | 1003.5 |
| 20260904231505 | 62 | 202 | 3.0 | 3.0 | 0.00 | 0.00 | 0.00 | 58 | 1003.5 |
| 20260904231205 | 62 | 270 | 4.0 | 4.0 | 0.00 | 0.00 | 0.00 | 58 | 1003.8 |
| 20260904230905 | 62 | 270 | 4.0 | 4.0 | 0.00 | 0.00 | 0.00 | 57 | 1003.0 |
| 20260904230305 | 62 | 337 | 3.0 | 3.0 | 0.00 | 0.00 | 0.00 | 55 | 1002.8 |
| 20260904230005 | 62 | 270 | 10.0 | 10.0 | 0.00 | 0.00 | 0.00 | 55 | 1003.0 |
| 20260904225705 | 62 | 247 | 4.0 | 4.0 | 0.00 | 0.00 | 0.00 | 55 | 1003.3 |
| 20260904225406 | 62 | 315 | 6.0 | 6.0 | 0.00 | 0.00 | 0.00 | 56 | 1003.3 |
| 20260904225106 | 62 | 270 | 5.0 | 5.0 | 0.00 | 0.00 | 0.00 | 57 | 1002.8 |
| 20260904224808 | 62 | 292 | 4.0 | 4.0 | 0.00 | 0.00 | 0.00 | 56 | 1003.0 |
| 20260904224506 | 62 | 270 | 3.0 | 3.0 | 0.00 | 0.00 | 0.00 | 55 | 1003.0 |
| 20260904224205 | 62 | 292 | 5.0 | 5.0 | 0.00 | 0.00 | 0.00 | 56 | 1003.3 |
| 20260904223906 | 62 | 292 | 5.0 | 5.0 | 0.00 | 0.00 | 0.00 | 56 | 1003.3 |
| 20260904223606 | 62 | 315 | 3.0 | 3.0 | 0.00 | 0.00 | 0.00 | 57 | 1003.3 |
| 20260904223005 | 63 | 292 | 12.0 | 12.0 | 0.00 | 0.00 | 0.00 | 56 | 1003.8 |
| 20260904222706 | 63 | 315 | 9.0 | 9.0 | 0.00 | 0.00 | 0.00 | 56 | 1003.5 |
| 20260904222405 | 63 | 315 | 6.0 | 6.0 | 0.00 | 0.00 | 0.00 | 56 | 1003.5 |
| 20260904222106 | 63 | 315 | 6.0 | 6.0 | 0.00 | 0.00 | 0.00 | 56 | 1003.3 |
| 20260904221805 | 63 | 315 | 8.0 | 8.0 | 0.00 | 0.00 | 0.00 | 56 | 1003.3 |
| 20260904221205 | 64 | 292 | 13.0 | 13.0 | 0.00 | 0.00 | 0.00 | 59 | 1003.8 |
| 20260904220905 | 64 | 337 | 12.0 | 12.0 | 0.00 | 0.00 | 0.00 | 62 | 1003.8 |
| 20260904220606 | 64 | 292 | 11.0 | 11.0 | 0.00 | 0.00 | 0.00 | 64 | 1003.8 |
| 20260904220305 | 64 | 270 | 12.0 | 13.0 | 0.00 | 0.00 | 0.00 | 66 | 1003.3 |
| 20260904220006 | 65 | 270 | 6.0 | 6.0 | 0.00 | 0.00 | 0.00 | 67 | 1003.3 |
| 20260904215709 | 65 | 337 | 6.0 | 6.0 | 0.00 | 0.00 | 0.00 | 68 | 1003.0 |
| 20260904215406 | 65 | 270 | 7.0 | 7.0 | 0.00 | 0.00 | 0.00 | 68 | 1003.0 |
| 20260904215107 | 65 | 270 | 10.0 | 10.0 | 0.00 | 0.00 | 0.00 | 68 | 1002.8 |
| 20260904214806 | 65 | 337 | 11.0 | 11.0 | 0.00 | 0.00 | 0.00 | 68 | 1002.8 |
| 20260904214506 | 65 | 292 | 12.0 | 12.0 | 0.00 | 0.00 | 0.00 | 67 | 1003.0 |
| 20260904214206 | 65 | 315 | 6.0 | 6.0 | 0.00 | 0.00 | 0.00 | 66 | 1002.8 |
| 20260904213906 | 65 | 270 | 9.0 | 9.0 | 0.00 | 0.00 | 0.00 | 66 | 1002.8 |
| 20260904213609 | 66 | 270 | 9.0 | 9.0 | 0.00 | 0.00 | 0.00 | 65 | 1002.5 |
| 20260904213306 | 66 | 270 | 5.0 | 5.0 | 0.00 | 0.00 | 0.00 | 65 | 1002.3 |
| 20260904213006 | 66 | 337 | 7.0 | 7.0 | 0.00 | 0.00 | 0.00 | 66 | 1002.3 |
| 20260904212708 | 66 | 315 | 7.0 | 7.0 | 0.00 | 0.00 | 0.00 | 66 | 1002.0 |
| 20260904212406 | 66 | 337 | 12.0 | 13.0 | 0.00 | 0.00 | 0.00 | 65 | 1002.0 |
| 20260904212105 | 66 | 315 | 13.0 | 13.0 | 0.00 | 0.00 | 0.00 | 66 | 1002.0 |
| 20260904211806 | 67 | 292 | 14.0 | 15.0 | 0.00 | 0.00 | 0.00 | 67 | 1001.8 |
| 20260904211509 | 67 | 337 | 19.0 | 19.0 | 0.00 | 0.00 | 0.00 | 68 | 1001.8 |
| 20260904211206 | 67 | 292 | 9.0 | 9.0 | 0.00 | 0.00 | 0.00 | 69 | 1001.8 |
| 20260904210906 | 68 | 337 | 11.0 | 11.0 | 0.00 | 0.00 | 0.00 | 68 | 1001.8 |
| 20260904210605 | 68 | 270 | 14.0 | 14.0 | 0.00 | 0.00 | 0.00 | 68 | 1001.8 |
| 20260904210307 | 69 | 315 | 11.0 | 11.0 | 0.00 | 0.00 | 0.00 | 68 | 1001.5 |
| 20260904210005 | 70 | 315 | 13.0 | 13.0 | 0.00 | 0.00 | 0.00 | 67 | 1001.3 |
| 20260904205406 | 71 | 270 | 14.0 | 14.0 | 0.00 | 0.00 | 0.00 | 66 | 1000.8 |
| 20260904205107 | 71 | 337 | 8.0 | 8.0 | 0.00 | 0.00 | 0.00 | 65 | 1000.5 |
| 20260904204806 | 72 | 270 | 17.0 | 17.0 | 0.00 | 0.00 | 0.00 | 65 | 1000.3 |
| 20260904204506 | 71 | 0 | 1.0 | 1.0 | 0.00 | 0.00 | 0.00 | 65 | 999.8 |
| 20260904204206 | 71 | 0 | 0.0 | 0.0 | 0.00 | 0.00 | 0.00 | 65 | 999.8 |
| 20260904203906 | 71 | 315 | 1.0 | 1.0 | 0.00 | 0.00 | 0.00 | 65 | 999.8 |
| 20260904203609 | 71 | 0 | 1.0 | 1.0 | 0.00 | 0.00 | 0.00 | 65 | 999.8 |
| 20260904203306 | 71 | 292 | 2.0 | 2.0 | 0.00 | 0.00 | 0.00 | 64 | 999.8 |
| 20260904203006 | 71 | 270 | 1.0 | 1.0 | 0.00 | 0.00 | 0.00 | 64 | 999.8 |
| 20260904202708 | 71 | 270 | 2.0 | 2.0 | 0.00 | 0.00 | 0.00 | 64 | 999.8 |
| 20260904202405 | 71 | 337 | 0.0 | 0.0 | 0.00 | 0.00 | 0.00 | 64 | 999.8 |
| 20260904202106 | 71 | 337 | 2.0 | 2.0 | 0.00 | 0.00 | 0.00 | 64 | 999.8 |
| 20260904201805 | 71 | 225 | 2.0 | 2.0 | 0.00 | 0.00 | 0.00 | 64 | 999.8 |
| 20260904201508 | 71 | 292 | 1.0 | 1.0 | 0.00 | 0.00 | 0.00 | 64 | 999.8 |
| 20260904201205 | 71 | 270 | 2.0 | 2.0 | 0.00 | 0.00 | 0.00 | 64 | 999.8 |
| 20260904200905 | 71 | 292 | 1.0 | 1.0 | 0.00 | 0.00 | 0.00 | 64 | 999.5 |
| 20260904200605 | 71 | 337 | 1.0 | 1.0 | 0.00 | 0.00 | 0.00 | 64 | 999.8 |
| 20260904200305 | 71 | 270 | 0.0 | 0.0 | 0.00 | 0.00 | 0.00 | 64 | 999.8 |
| 20260904200005 | 71 | 270 | 0.0 | 0.0 | 0.00 | 0.00 | 0.00 | 64 | 999.8 |
| 20260904195705 | 71 | 315 | 1.0 | 1.0 | 0.00 | 0.00 | 0.00 | 64 | 999.8 |
| 20260904195408 | 71 | 292 | 1.0 | 1.0 | 0.00 | 0.00 | 0.00 | 64 | 999.8 |
| 20260904195106 | 71 | 270 | 2.0 | 2.0 | 0.00 | 0.00 | 0.00 | 64 | 999.8 |
| 20260904194807 | 71 | 315 | 3.0 | 3.0 | 0.00 | 0.00 | 0.00 | 63 | 999.8 |
| 20260904194506 | 72 | 337 | 1.0 | 1.0 | 0.00 | 0.00 | 0.00 | 62 | 999.8 |
| 20260904194205 | 72 | 315 | 0.0 | 0.0 | 0.00 | 0.00 | 0.00 | 62 | 999.5 |
| 20260904193905 | 72 | 337 | 1.0 | 1.0 | 0.00 | 0.00 | 0.00 | 62 | 999.5 |
| 20260904193606 | 72 | 270 | 2.0 | 2.0 | 0.00 | 0.00 | 0.00 | 62 | 999.5 |
| 20260904193308 | 72 | 337 | 1.0 | 1.0 | 0.00 | 0.00 | 0.00 | 62 | 999.5 |
| 20260904193006 | 72 | 270 | 2.0 | 2.0 | 0.00 | 0.00 | 0.00 | 62 | 999.5 |
| 20260904192707 | 72 | 337 | 2.0 | 2.0 | 0.00 | 0.00 | 0.00 | 62 | 999.3 |
| 20260904192405 | 72 | 270 | 0.0 | 0.0 | 0.00 | 0.00 | 0.00 | 62 | 999.3 |
| 20260904192105 | 72 | 247 | 1.0 | 1.0 | 0.00 | 0.00 | 0.00 | 63 | 999.5 |
| 20260904191806 | 72 | 247 | 0.0 | 0.0 | 0.00 | 0.00 | 0.00 | 63 | 999.3 |
| 20260904191505 | 72 | 270 | 1.0 | 1.0 | 0.00 | 0.00 | 0.00 | 63 | 999.3 |
| 20260904191208 | 71 | 247 | 2.0 | 2.0 | 0.00 | 0.00 | 0.00 | 63 | 999.3 |
| 20260904190906 | 71 | 270 | 0.0 | 0.0 | 0.00 | 0.00 | 0.00 | 63 | 999.3 |
| 20260904190606 | 71 | 337 | 0.0 | 0.0 | 0.00 | 0.00 | 0.00 | 63 | 999.3 |
| 20260904190305 | 71 | 315 | 0.0 | 0.0 | 0.00 | 0.00 | 0.00 | 63 | 999.3 |
| 20260904190005 | 71 | 315 | 0.0 | 0.0 | 0.00 | 0.00 | 0.00 | 63 | 999.3 |